Wind_Speed
16 15 13 15 14 14 12 12 13 12 9 7 6 6 4 4 3 3 4 5 7 8 9 11 12 13 15 16 16 15 14 16
17 16 15 15 16 16 14 13 15 13 11 9 7 7 5 3 3 5 4 5 7 8 8 10 11 11 12 14 15 16 16 16
19 21 19 18 18 17 16 15 17 15 12 10 7 7 5 4 4 6 6 6 6 7 8 9 11 11 12 13 16 16 15 15
20 23 23 20 20 20 18 17 17 17 13 11 9 7 6 5 4 4 6 6 7 7 8 8 9 10 12 14 15 16 16 14
23 25 25 24 23 20 19 18 17 16 14 14 13 11 9 5 5 5 4 5 6 7 8 8 9 9 11 12 13 13 14 14
21 27 27 26 23 22 20 19 17 16 14 14 13 11 7 7 6 5 4 3 5 5 6 7 9 10 10 11 12 12 11 12
25 26 26 25 23 23 21 20 19 17 14 15 14 11 10 9 7 5 3 1 1 3 6 8 9 9 10 10 10 9 10 10
18 24 26 26 27 26 23 21 19 17 15 14 12 12 10 8 8 5 3 2 1 3 6 7 8 8 8 9 10 10 9 10
16 23 25 27 27 27 24 23 20 19 17 14 12 11 9 8 7 5 3 2 2 3 6 7 8 8 9 10 10 9 8 9
9 18 24 24 25 26 26 25 23 19 17 14 12 11 10 8 7 4 3 2 3 5 7 8 9 9 10 10 10 10 10 10
2 7 14 20 23 25 26 25 22 18 15 14 12 11 9 7 5 4 3 3 4 6 9 11 12 12 12 12 12 13 13 13
5 0 3 9 14 18 20 20 20 17 15 13 12 10 8 6 3 3 4 5 6 9 11 13 15 15 15 16 16 17 16 16
8 7 5 5 7 11 15 17 18 16 15 14 11 8 6 3 3 4 5 7 9 12 14 16 18 19 19 20 21 20 21 21
9 9 9 9 10 12 15 16 17 17 15 12 8 5 3 2 4 6 7 9 13 16 18 19 21 22 23 24 25 25 25 25
8 10 12 13 14 16 18 18 17 16 12 9 6 3 1 4 6 7 10 14 17 18 20 22 23 25 26 28 27 27 27 28
9 10 15 18 20 20 19 19 16 13 11 8 6 4 4 5 7 10 13 15 17 18 20 21 21 22 24 19 22 25 29 32
12 17 20 20 20 19 19 17 15 12 11 10 8 7 7 8 10 12 14 16 18 19 21 21 23 24 25 23 24 26 28 30
15 18 19 19 19 17 17 15 14 13 11 10 9 9 10 11 13 15 17 18 19 20 22 23 24 25 24 25 27 26 28 28
18 19 19 18 18 17 16 14 13 12 11 10 10 12 12 13 15 16 18 19 20 22 23 23 24 24 22 23 23 26 26 26
Wind_Direction
193 189 184 184 179 181 182 184 182 173 164 154 144 131 113 88 67 35 31 20 19 23 19 19 17 11 5 0 353 351 345 344
191 192 189 187 181 185 189 188 185 180 179 176 167 161 150 116 64 44 53 34 27 27 21 14 12 9 6 356 353 349 349 348
190 192 194 193 186 189 191 192 188 188 189 188 183 169 159 138 102 85 82 72 57 39 26 13 7 2 359 359 355 351 348 353
196 196 198 195 193 194 194 193 191 193 192 189 180 173 174 168 135 94 69 58 49 44 35 19 10 6 360 356 356 355 346 347
201 199 198 199 199 196 197 196 196 198 200 201 201 200 196 178 163 134 97 73 53 37 29 22 12 8 3 358 354 356 350 343
205 200 200 201 198 197 197 197 198 198 202 202 203 217 199 178 163 144 128 75 53 34 22 15 11 7 2 356 355 354 348 342
208 204 202 200 198 197 197 197 198 197 198 197 204 208 194 184 178 175 168 124 35 20 9 9 5 1 353 348 341 334 343 336
207 203 202 202 198 198 196 197 198 196 196 200 202 197 196 195 184 192 191 224 284 336 359 354 349 345 342 339 329 329 328 327
216 213 207 204 202 200 197 198 198 194 195 196 192 189 191 189 185 181 204 255 306 335 338 335 330 327 328 326 323 321 317 316
213 220 215 211 207 203 198 198 199 195 189 185 177 174 174 176 167 172 206 248 295 312 317 316 312 309 312 316 314 309 312 311
225 224 219 218 213 206 202 199 195 186 179 171 166 162 159 162 170 191 218 255 284 301 307 307 305 301 301 303 306 305 303 307
20 345 217 213 214 208 197 194 180 170 164 153 151 152 154 162 184 211 243 267 282 293 303 308 308 304 303 301 301 300 295 300
43 58 85 125 169 179 183 171 162 154 146 140 142 144 153 173 226 253 265 277 289 299 308 311 312 309 303 301 297 295 293 292
60 70 84 103 124 138 150 152 140 132 131 130 129 133 153 244 276 282 285 293 301 307 309 310 311 309 304 300 295 290 288 287
73 80 87 96 107 118 123 121 116 115 114 110 104 98 352 311 307 302 302 307 309 310 309 308 308 307 304 300 296 295 292 290
83 91 98 103 107 110 110 104 101 101 97 89 69 38 2 338 325 317 316 315 315 314 313 314 313 312 308 321 314 305 297 293
99 103 105 106 106 103 99 95 91 87 79 67 52 32 5 348 336 330 326 323 320 318 317 315 313 311 316 321 322 314 303 295
109 106 104 103 101 99 93 89 85 78 69 54 35 15 357 345 336 331 328 325 322 319 316 315 314 313 319 327 322 315 308 301
111 109 106 102 98 92 90 83 75 65 51 33 15 4 354 345 337 332 327 325 322 321 319 317 315 315 323 325 327 314 309 305
Height
873 878 881 883 886 889 892 894 895 897 899 900 901 901 901 901 901 900 899 898 897 896 895 893 892 891 889 887 885 881 876 872
870 877 880 882 884 887 890 892 894 896 898 898 898 899 900 901 901 900 900 899 899 898 897 896 893 891 889 889 885 881 876 873
865 872 876 878 880 884 887 890 892 894 895 896 897 898 899 900 900 900 899 898 897 897 897 897 895 893 890 887 886 882 877 874
861 867 870 875 877 880 883 886 888 890 893 895 897 899 900 900 901 901 900 900 899 898 896 896 895 893 891 890 886 883 879 875
853 860 865 868 872 876 880 883 886 888 891 893 895 894 895 897 899 899 900 899 899 899 898 896 895 893 891 890 887 884 882 877
842 850 856 862 868 872 876 879 883 886 888 890 892 894 894 897 899 900 900 900 899 899 898 896 894 893 891 889 887 885 884 881
837 844 851 856 864 869 872 876 879 883 886 888 890 892 894 896 897 898 899 900 900 900 898 896 894 893 891 889 888 886 883 882
833 839 845 851 857 862 868 873 877 881 884 887 889 890 893 895 895 897 898 899 899 899 897 895 894 892 891 889 887 885 882 881
831 835 840 845 852 859 865 869 873 876 881 884 886 889 891 893 894 896 897 899 898 898 897 895 893 892 890 888 885 883 881 879
829 832 836 841 848 854 860 865 869 874 878 882 885 887 890 892 894 895 896 897 898 897 896 895 893 891 889 886 883 882 880 877
829 831 834 838 843 849 855 860 866 872 877 880 884 887 889 891 893 895 895 896 895 895 895 893 891 888 886 883 881 879 877 875
831 833 836 839 843 848 855 861 866 872 877 880 884 887 889 891 893 894 894 894 894 893 892 890 888 885 883 881 879 876 874 872
838 839 840 842 846 851 858 863 868 872 876 880 885 887 890 891 893 893 893 893 893 891 889 887 884 882 879 876 874 872 870 867
843 844 846 848 851 856 862 866 869 873 878 882 886 889 891 892 892 893 892 892 891 889 886 883 880 877 874 871 868 865 863 860
847 849 851 854 857 861 867 871 873 877 882 885 888 890 891 892 892 892 891 890 888 885 883 880 877 873 870 866 862 859 856 853
850 853 856 859 863 868 872 875 878 882 885 888 890 891 892 892 892 891 890 887 885 882 880 877 874 870 865 862 860 857 854 849
856 858 861 865 869 873 876 879 883 885 888 890 892 893 893 892 891 890 888 886 883 880 877 874 871 867 864 861 859 856 851 846
860 864 868 872 875 878 882 885 887 889 891 893 894 893 893 892 890 888 886 884 881 878 875 871 868 865 861 858 856 853 847 841
866 871 874 878 881 884 887 889 891 892 894 895 894 894 892 891 890 887 885 882 879 876 872 869 866 862 859 856 853 849 842 837